Regional Weather Roundup
Issued by NWS

Home | Current Version | Previous Version | Graphics & Text | Print | Product List | Glossary On
Versions: 1 2 3 4 5 6 7 8 9 10 11 12 13 14 15 16 17 18 19 20 21 22 23 24 25 26 27
000
ASUS45 KPSR 190210
RWRAZ

ARIZONA HOURLY REGIONAL WEATHER ROUNDUP
NATIONAL WEATHER SERVICE PHOENIX AZ
700 PM MST WED JAN 18 2017

NOTE: FAIR INDICATES FEW OR NO CLOUDS BELOW 12,000 FEET WITH NO
SIGNIFICANT WEATHER AND/OR OBSTRUCTIONS TO VISIBILITY.

AZZ001>003-036-190300-
NORTHWEST ARIZONA

CITY           SKY/WX    TMP DP  RH WIND       PRES   REMARKS
BULLHEAD CITY  MOCLDY    55  32  41 SE5       30.03R
KINGMAN        PTCLDY    45  26  47 S10       30.04R
$$

AZZ004>008-015-016-018-190300-
NORTH CENTRAL ARIZONA

CITY           SKY/WX    TMP DP  RH WIND       PRES   REMARKS
GRAND CANYON   CLEAR     27  23  85 CALM      30.05S
WILLIAMS       CLEAR     36  23  60 S9        30.06S WCI  29
PRESCOTT       CLEAR     42  31  64 SW7       30.06R
FLAGSTAFF      CLEAR     32  25  75 SW3       30.06F
PAYSON         CLEAR     41  36  81 CALM      30.09S
PAGE           CLEAR     42  27  55 SE3       29.98S
$$

AZZ009>014-017-190300-
NORTHEAST ARIZONA

CITY           SKY/WX    TMP DP  RH WIND       PRES   REMARKS
WINSLOW        CLEAR     42  31  64 SW7       30.03R
SAINT JOHNS    CLEAR     40  30  67 SW9       30.03S WCI  34
SHOW LOW       CLEAR     34  28  80 S10       30.07S WCI  26
$$

AZZ023-190300-
GREATER PHOENIX AREA

CITY           SKY/WX    TMP DP  RH WIND       PRES   REMARKS
PHOENIX        PTCLDY    61  40  45 S3        30.02R
BUCKEYE          N/A     55  41  58 N5        30.04R
GLENDALE       PTCLDY    61  39  44 CALM      30.04R
LUKE AFB       CLEAR     59  41  51 W3        30.02R
DEER VALLEY    CLEAR     58  39  49 W3        30.03R
SCOTTSDALE     CLEAR     59  41  51 CALM      30.04R
MESA-FALCON    CLEAR    N/A N/A N/A CALM      30.01R
MESA-GATEWAY   PTCLDY    57  41  54 CALM      30.04R
CHANDLER       CLEAR     61  41  48 S6        30.03R
$$

AZZ027-028-190300-
SOUTHWEST MARICOPA COUNTY AND PINAL COUNTY

CITY           SKY/WX    TMP DP  RH WIND       PRES   REMARKS
CASA GRANDE    CLEAR     56  42  59 NE3       30.04R
$$

AZZ503-504-507>509-190300-
SOUTHEAST ARIZONA

CITY           SKY/WX    TMP DP  RH WIND       PRES   REMARKS
TUCSON         CLEAR     56  39  53 CALM      30.06S
DAVIS-MONTHAN  CLEAR     53  42  64 CALM      30.05S
RYAN FIELD     CLEAR     55  43  62 CALM      30.06S
NOGALES        CLEAR     51  31  46 W3        30.07R
SIERRA VISTA   CLEAR     45  33  63 SW6       30.09S
DOUGLAS        MOCLDY    46  37  71 NW8       30.07R
SAFFORD        CLEAR     48  40  73 NW6       30.03S
$$

AZZ020-021-025-026-031-190300-
SOUTHWEST ARIZONA

CITY           SKY/WX    TMP DP  RH WIND       PRES   REMARKS
YUMA           CLEAR     60  30  32 S6        30.04R
$$

CAZ031-033-041-043-047-048-061-190300-
SOUTHERN CALIFORNIA

CITY           SKY/WX    TMP DP  RH WIND       PRES   REMARKS
DOWNTOWN L.A.  CLOUDY    58  46  64 W8        30.13R
L.A. AIRPORT   CLOUDY    57  47  69 W15       30.14R
SAN DIEGO      CLOUDY    59  49  69 NW8       30.17R
BURBANK        CLOUDY    55  44  66 W10       30.13R
ONTARIO        CLOUDY    53  46  77 SW10      30.11S
RIVERSIDE      CLOUDY    53  48  83 SW5       30.12R
PALM SPRINGS   CLOUDY    61  34  36 E7        30.05R
EL CENTRO NAS  MOCLDY    61  37  41 S7        30.05R
IMPERIAL       MOCLDY    63  38  39 S5        30.02R
BLYTHE         PTCLDY    60  34  37 CALM      30.03R
NEEDLES        MOCLDY    61  27  27 SW7       30.03R
$$

NVZ020-UTZ003-190300-
SOUTHERN NEVADA-UTAH

CITY           SKY/WX    TMP DP  RH WIND       PRES   REMARKS
LAS VEGAS      CLOUDY    53  25  33 CALM      29.95S
SALT LAKE CITY MOCLDY    24  21  88 N5        29.96F FOG     WCI  18
$$

NMZ009-TXZ055-190300-
NEW MEXICO-WEST TEXAS

CITY           SKY/WX    TMP DP  RH WIND       PRES   REMARKS
ALBUQUERQUE    CLOUDY    44  32  62 NW6       30.00S
EL PASO        PTCLDY    52  35  52 SW9       30.02S
$$


........................KEY........................
SKY/WX - SKY CONDITION/WEATHER
TMP    - TEMPERATURE IN FAHRENHEIT
DP     - DEW POINT IN FAHRENHEIT
RH     - RELATIVE HUMIDITY IN PERCENT
WIND   - DIRECTION AND SPEED IN MILES PER HOUR (MPH)
VRB    - VARIABLE WIND DIRECTION
PRES   - MEAN SEA LEVEL PRESSURE IN INCHES OF MERCURY
         F - FALLING PRESSURE   R - RISING PRESSURE
         S - STEADY PRESSURE
VSB    - VISIBILITY IN MILES
HX     - HEAT INDEX IN FAHRENHEIT
WCI    - WIND CHILL INDEX IN FAHRENHEIT
TC     - TEMPERATURE IN CELSIUS WHICH IS ALSO KNOWN AS
         TEMPERATURE IN CENTIGRADE
AFB    - AIR FORCE BASE
         LUKE AFB IS LUKE AIR FORCE BASE
         DAVIS-MONTHAN IS DAVIS-MONTHAN AIR FORCE BASE
NAS    - NAVAL AIR STATION
         EL CENTRO NAS IS EL CENTRO NAVAL AIR STATION
N/A    - NOT AVAILABLE





USA.gov is the U.S. government's official web portal to all federal, state and local government web resources and services.